QZS-2 (QZSS/PRN 184)

Last updated on Nov. 21, 2019, 4:16 a.m. UTC

1 42738U 17028A   19324.39753708 -.00000220  00000-0  00000+0 0  9997
2 42738  43.3458 277.3496 0763008 269.0112 153.1430  1.00297308  9068
UTC
Height (km)
Latitude
Longitude
Inclination
Orbital Period
UTC large
Height (km)
Speed (km/s)
/
Latitude / Longitude
Inclination (degrees)
Orbital Period (minutes)
Azimuth
Elevation
Range (km)
Doppler Factor
iOS Compass Heading
iOS Angle

Next 30 passes for location: Hong Kong

Rise time Rise Azimuth (degrees) Set time Set Azimuth (degrees) Duration Max altitude (degrees)

No matching passes for this satellites